Burlington, NC

7:58 AM EST on January 22, 2018 (GMT -0500)
Burlington-Alamance Regional

Weather History for KBUY - June, 2013

Change the Weather History Date:

Sunday, June 23, 2013

  Actual Average Record
Temperature  
Mean Temperature 76 °F -  
Max Temperature 87 °F 87 °F 98 °F (2015)
Min Temperature 64 °F 64 °F 52 °F (1992)
Cooling Degree Days 10    
Growing Degree Days 26 (Base 50)    
Moisture  
Dew Point 68 °F    
Average Humidity 82    
Maximum Humidity 100    
Minimum Humidity 55    
Precipitation  
Precipitation 0.01 in - - ()
Sea Level Pressure  
Sea Level Pressure 30.18 in    
Wind  
Wind Speed 2 mph (SSW)    
Max Wind Speed 9 mph    
Max Gust Speed -    
Visibility 9 miles    
Events      
Averages and records for this station are not official NWS values.
T = Trace of Precipitation, MM = Missing Value Source: NWS Daily Summary

Daily Weather History Graph

Daily Weather History Graph

Search for Another Location

Airport or City:

Trip Planner

Search our weather history database for the weather conditions in past years. The results will help you decide how hot, cold, wet, or windy it might be!

Date:

Astronomy

Jun. 23, 2013 Rise Set
Actual Time 6:01 AM EDT 8:38 PM EDT
Civil Twilight 5:31 AM EDT 9:08 PM EDT
Nautical Twilight 4:53 AM EDT 9:46 PM EDT
Astronomical Twilight 4:11 AM EDT 10:28 PM EDT
Moon 8:51 PM EDT (6/23) 6:15 AM EDT (6/23)
Length of Visible Light 15h 37m
Length of Day
14h 36m
Full, 100% of the Moon is Illuminated
Jun 23
Full
Jun 30
Last Quarter
Jul 8
New
Jul 15
First Quarter
Jul 22
Full

Hourly Weather History & Observations

Time (EDT) Temp. Heat Index Dew Point Humidity Pressure Visibility Wind Dir Wind Speed Gust Speed Precip Events Conditions
12:19 AM 69.8 °F - 68.0 °F 94% 30.19 in 10.0 mi SSW 4.6 mph - N/A   Scattered Clouds
12:54 AM 68.0 °F - 66.9 °F 96% 30.17 in 10.0 mi Calm Calm - N/A   Clear
1:54 AM 69.1 °F - 68.0 °F 96% 30.16 in 10.0 mi Calm Calm - N/A   Clear
2:02 AM 68.0 °F - 66.2 °F 94% 30.17 in 1.8 mi Calm Calm - N/A   Clear
2:11 AM 68.0 °F - 66.2 °F 94% 30.17 in 3.0 mi Calm Calm - N/A   Clear
2:23 AM 68.0 °F - 66.2 °F 94% 30.17 in 1.5 mi Calm Calm - N/A   Partly Cloudy
2:33 AM 66.2 °F - 66.2 °F 100% 30.17 in 4.0 mi Calm Calm - N/A   Clear
2:54 AM 66.9 °F - 66.0 °F 97% 30.15 in 10.0 mi Calm Calm - N/A   Clear
3:22 AM 66.2 °F - 66.2 °F 100% 30.18 in 9.0 mi Calm Calm - N/A   Partly Cloudy
3:54 AM 66.0 °F - 64.0 °F 93% 30.16 in 7.0 mi Calm Calm - N/A   Partly Cloudy
4:12 AM 64.4 °F - 64.4 °F 100% 30.17 in 2.5 mi Calm Calm - 0.01 in   Partly Cloudy
4:24 AM 66.2 °F - 64.4 °F 94% 30.17 in 10.0 mi Calm Calm - 0.01 in   Mostly Cloudy
4:54 AM 66.9 °F - 66.0 °F 97% 30.15 in 10.0 mi Calm Calm - 0.01 in   Overcast
5:54 AM 66.9 °F - 66.0 °F 97% 30.16 in 9.0 mi Calm Calm - N/A   Overcast
6:54 AM 66.9 °F - 66.0 °F 97% 30.17 in 8.0 mi Calm Calm - N/A   Partly Cloudy
7:10 AM 68.0 °F - 66.2 °F 94% 30.19 in 7.0 mi Calm Calm - N/A   Mostly Cloudy
7:18 AM 69.8 °F - 66.2 °F 88% 30.20 in 7.0 mi Calm Calm - N/A   Scattered Clouds
7:54 AM 71.1 °F - 68.0 °F 90% 30.19 in 9.0 mi Calm Calm - N/A   Partly Cloudy
8:42 AM 73.4 °F - 69.8 °F 88% 30.23 in 10.0 mi Calm Calm - N/A   Mostly Cloudy
8:54 AM 73.9 °F - 70.0 °F 87% 30.22 in 10.0 mi West 3.5 mph - N/A   Overcast
9:26 AM 75.2 °F - 69.8 °F 83% 30.23 in 10.0 mi South 3.5 mph - N/A   Scattered Clouds
9:54 AM 78.1 °F - 70.0 °F 76% 30.21 in 10.0 mi Variable 3.5 mph - N/A   Mostly Cloudy
10:16 AM 78.8 °F - 69.8 °F 74% 30.23 in 10.0 mi Variable 3.5 mph - N/A   Mostly Cloudy
10:26 AM 78.8 °F - 69.8 °F 74% 30.23 in 10.0 mi SSW 3.5 mph - N/A   Scattered Clouds
10:41 AM 80.6 °F 83.9 °F 69.8 °F 70% 30.23 in 10.0 mi Calm Calm - N/A   Mostly Cloudy
10:54 AM 78.1 °F - 69.1 °F 74% 30.21 in 10.0 mi Calm Calm - N/A   Mostly Cloudy
11:03 AM 78.8 °F - 69.8 °F 74% 30.23 in 10.0 mi SW 3.5 mph - N/A   Scattered Clouds
11:54 AM 82.0 °F 85.5 °F 69.1 °F 65% 30.20 in 10.0 mi South 4.6 mph - N/A   Clear
12:54 PM 84.0 °F 87.8 °F 69.1 °F 61% 30.19 in 10.0 mi West 3.5 mph - N/A   Partly Cloudy
1:54 PM 84.9 °F 88.8 °F 69.1 °F 59% 30.17 in 10.0 mi SSW 9.2 mph - N/A   Partly Cloudy
2:54 PM 87.1 °F 91.3 °F 69.1 °F 55% 30.15 in 10.0 mi SW 6.9 mph - N/A   Partly Cloudy
3:54 PM 86.0 °F 90.7 °F 70.0 °F 59% 30.13 in 10.0 mi SSE 8.1 mph - N/A   Scattered Clouds
4:54 PM 84.9 °F 89.4 °F 70.0 °F 61% 30.13 in 10.0 mi SE 4.6 mph - N/A   Partly Cloudy
5:50 PM 78.8 °F - 64.4 °F 61% 30.15 in 10.0 mi NNE 4.6 mph - N/A   Mostly Cloudy
5:54 PM 78.1 °F - 64.0 °F 62% 30.13 in 10.0 mi NE 4.6 mph - N/A   Overcast
6:09 PM 78.8 °F - 64.4 °F 61% 30.15 in 10.0 mi Calm Calm - N/A   Overcast
6:54 PM 77.0 °F - 68.0 °F 74% 30.15 in 10.0 mi Calm Calm - 0.00 in   Mostly Cloudy
7:54 PM 77.0 °F - 68.0 °F 74% 30.14 in 10.0 mi Calm Calm - N/A   Scattered Clouds
8:54 PM 75.0 °F - 69.1 °F 82% 30.14 in 10.0 mi Calm Calm - N/A   Clear
9:54 PM 71.1 °F - 68.0 °F 90% 30.16 in 10.0 mi East 3.5 mph - 0.00 in   Clear
10:54 PM 73.0 °F - 68.0 °F 84% 30.17 in 10.0 mi South 3.5 mph - N/A   Clear
11:54 PM 72.0 °F - 68.0 °F 87% 30.17 in 10.0 mi SW 4.6 mph - N/A   Clear